Find Starlink 38308

NORAD ID: 100386 Int'l Des: 2026-190 Owner: SPXS Country: US Constellation: starlink operational

Current View

Loading 3D Globe...

About Starlink 38308

Starlink 38308 (NORAD 100386) is a starlink constellation satellite launched Aug 19, 2026 by SPXS of US. with a mass of 575.00 kg.

Upcoming Passes

Passes for default location (London). Set your location on the main map for personalized predictions.

Altitude History

Loading altitude history...

Two-Line Element Set

1 A0386U 26190R 26262.91799833 -.00374773 00000-0 -62963-2 0 9993
2 A0386 97.2844 117.0872 0001550 55.0552 305.0847 15.53041227 6274
Epoch: Sep 19, 2026 • Age: 16 hours

Current Status

Altitude 418.7 km
Apogee / Perigee N/A
Velocity 7.67 km/s
Sub-Earth Point 60.58°N, 101.15°W
Launch Date Aug 19, 2026
Age 32 days
Type internet

Technical Details

Classification Payload
Mass 575.00 kg
Dry Mass 530.00 kg
Length 0.30 m
Span 29.00 m
Shape ? Box + pan
Manufacturer SPXS
Bus Type Starlink V2MO
Phase Status In Orbit
Owner/State SPXS/US

Most Searched